Regional Weather Roundup
Issued by NWS Green Bay, WI

Home | Current Version | Previous Version | Graphics & Text | Print | Product List | Glossary Off
Versions: 1 2 3 4 5 6 7 8 9 10 11 12 13 14 15 16 17 18 19 20 21 22 23 24 25 26 27 28 29 30 31 32 33 34 35 36 37 38 39 40 41 42 43 44 45 46 47 48 49 50

000
ASUS43 KGRB 230000
RWRGRB

NORTH-CENTRAL AND NORTHEAST WISCONSIN REGIONAL WEATHER ROUNDUP
NATIONAL WEATHER SERVICE GREEN BAY WI
700 PM CDT MON MAY 22 2017

WIZ005-009-010>012-018-019-230100-
NORTH CENTRAL WISCONSIN

CITY           SKY/WX    TMP DP  RH WIND       PRES   REMARKS
IRONWOOD       CLOUDY    52  45  77 SW5       29.83R
MANITOWISH WTR NOT AVBL
ARBOR VITAE    NOT AVBL
EAGLE RIVER    NOT AVBL
LAND O LAKES   NOT AVBL
RHINELANDER    CLOUDY    57  41  55 NW8       29.83R
PHILLIPS       NOT AVBL
ANTIGO         NOT AVBL
TOMAHAWK       NOT AVBL
MERRILL        NOT AVBL
$$

WIZ013-073-230100-
NORTHEAST WISCONSIN

CITY           SKY/WX    TMP DP  RH WIND       PRES   REMARKS
IRON MOUNTAIN  CLOUDY    57  40  52 NW10      29.80S
MARINETTE      LGT RAIN  55  48  77 NE6       29.82R
$$

WIZ017-030-035>037-045-230100-
CENTRAL WISCONSIN

CITY           SKY/WX    TMP DP  RH WIND       PRES   REMARKS
MEDFORD        NOT AVBL
WAUSAU         MOSUNNY   60  43  53 NW8       29.80S
MOSINEE        NOT AVBL
MARSHFIELD     PTSUNNY   62  45  53 NW7       29.80S
WISC RAPIDS    MOSUNNY   67  43  41 NW10      29.81S
STEVENS POINT  NOT AVBL
WAUPACA        NOT AVBL
SHAWANO        NOT AVBL
CLINTONVILLE   NOT AVBL
WAUTOMA        CLOUDY    66  49  54 SW10      29.81S
$$

WIZ038-039-048-051-230100-
FOX VALLEY

CITY           SKY/WX    TMP DP  RH WIND       PRES   REMARKS
NWS GREEN BAY  LGT RAIN  65  51  60 SW10      29.79S
APPLETON       MOSUNNY   64  45  48 SW18G24   29.79S
OSHKOSH        CLOUDY    65  50  58 SW12G20   29.81S
FOND DU LAC    CLOUDY    64  49  57 SW9G18    29.83F
$$

WIZ022-050-052-230100-
EAST CENTRAL WISCONSIN

CITY           SKY/WX    TMP DP  RH WIND       PRES   REMARKS
EPHRAIM        NOT AVBL
WASHINGTON ISL NOT AVBL
STURGEON BAY   CLOUDY    56  50  80 S8        29.79S
MANITOWOC      NOT AVBL
SHEBOYGAN      MOSUNNY   64  51  62 SW9       29.84S
$$

LMZ563-521-522-541>543-230100-
LAKESHORE

STATION/POSITION TIME  TEMP    WIND        PRES    VSBY  WAVE
                       AIR SEA DIR/SP/G                  HT/PER
                 (UTC) (F)     (DEG/KT/KT) (MB)    (MI)  (FT/S)
SHEBOYGAN LKSHOR 2300   64     220/ 17/ 19 1010.3F
KEWAUNEE LKSHORE 2330          240/  8/ 14 1008.7S
NORTHPORT PIER   2340   50      CALM  /  2 1010.2R
N MID LAKE BUOY  2250   45 39  180/ 17/ 19 1009.9F         4/ 5
CHAMBERS ISLAND  2340   51     340/  6/  7 1009.5R
MENOMINEE LKSHOR 2330           10/ 15/ 19 1008.8R
$$



USA.gov is the U.S. government's official web portal to all federal, state and local government web resources and services.